Temperature
5 5 5 5 5 5 5 5 5 5 5 5 5 5 5 5 6 6 6 6 6 6 6 6 6 7 7 7 7 7 7 7 7 7 7 8 8 8 8 7 7 7 7
5 5 5 5 5 5 5 5 5 5 5 5 5 5 5 5 5 5 6 6 6 6 6 6 6 6 6 7 7 7 7 7 7 7 7 7 7 7 7 7 7 7 7
5 5 5 5 5 5 5 5 5 5 5 4 4 4 5 5 5 5 5 5 5 5 5 6 6 6 6 6 6 7 6 6 6 6 7 7 7 7 6 6 6 6 6
5 5 5 5 5 4 4 4 4 4 4 4 4 4 4 5 5 5 5 5 5 5 5 5 5 6 6 6 6 6 6 6 6 6 6 6 6 6 6 6 6 6 6
5 4 4 4 4 4 4 4 4 4 4 4 4 4 4 4 4 4 4 4 4 5 5 5 5 5 5 6 6 6 6 6 6 6 6 6 6 6 6 5 5 5 5
4 4 4 4 4 4 4 4 4 4 4 4 4 4 4 4 4 4 4 4 4 4 4 4 5 5 5 5 5 5 5 5 5 5 5 5 6 5 5 5 5 5 5
4 4 4 4 4 4 4 4 3 3 3 3 3 3 3 4 4 4 4 4 4 4 4 4 4 4 5 5 5 5 5 5 5 5 5 5 5 5 5 5 5 5 4
4 4 3 3 3 3 3 3 3 3 3 3 3 3 3 3 3 3 3 4 4 4 4 4 4 4 4 4 4 4 4 4 4 4 5 5 5 5 5 5 4 4 4
3 3 3 3 3 3 3 3 3 3 2 2 2 2 2 3 3 3 3 3 3 3 3 3 3 3 3 4 4 4 4 4 4 4 4 4 4 4 4 4 4 3 3
3 3 3 3 3 3 3 2 2 2 2 2 2 2 2 2 2 3 3 3 3 3 3 3 3 3 3 3 3 4 4 4 4 4 4 4 4 4 4 4 4 3 3
3 3 3 3 2 2 2 2 2 2 1 1 1 1 2 2 2 2 2 2 2 2 2 3 3 3 3 3 3 3 3 3 3 3 3 3 3 3 3 3 3 3 3
2 2 2 2 2 2 1 1 1 1 1 1 1 1 1 1 2 2 2 2 2 2 2 2 2 2 3 3 3 3 3 3 3 3 3 3 3 3 3 3 3 3 3
2 2 2 1 1 1 1 1 1 1 1 1 1 1 1 1 1 1 1 1 1 1 2 2 2 2 2 2 2 3 2 2 2 3 3 2 2 2 2 2 2 2 2
1 1 1 1 1 1 0 0 0 0 0 0 0 0 0 1 1 1 1 1 1 1 1 2 2 2 2 2 2 2 2 2 2 2 2 2 2 2 2 2 2 2 1
1 1 1 0 0 0 0 -0 -0 -0 -0 -0 -0 0 0 0 0 0 0 1 1 1 1 1 1 1 1 1 2 1 1 1 1 2 2 2 2 1 1 1 1 1 1
0 0 0 -0 -0 -0 -0 -0 -0 -1 -1 -0 -0 -0 -0 0 0 0 0 1 1 1 1 1 1 1 1 1 1 1 1 1 1 1 1 1 1 1 1 1 1 1 1
-0 -0 -0 -0 -1 -1 -1 -1 -1 -1 -0 -0 -0 -0 -0 -0 0 0 0 0 0 1 1 1 0 0 0 1 1 0 0 1 1 1 1 1 1 1 1 0 0 0 0
-1 -1 -1 -1 -1 -1 -1 -1 -2 -2 -1 -1 -0 -0 -0 -0 -0 -0 0 0 0 0 0 0 0 0 0 0 0 0 0 0 0 0 0 0 0 0 0 0 -0 -0 -0
-1 -1 -1 -1 -1 -2 -2 -2 -2 -2 -2 -2 -1 -1 -1 -1 -1 -0 -0 -0 -0 -0 -0 -0 -0 -0 -0 -0 -0 -0 0 0 0 0 0 0 0 -0 -0 -0 -0 -0 -0
-2 -2 -2 -2 -2 -2 -2 -2 -2 -2 -2 -2 -2 -2 -1 -2 -1 -1 -1 -1 -1 -1 -1 -1 -0 -0 -1 -0 -0 -0 -0 -0 -0 -0 -0 -0 -0 -0 -1 -0 -0 -1 -1
-2 -2 -2 -3 -3 -3 -3 -3 -3 -3 -3 -3 -3 -2 -2 -2 -2 -2 -2 -2 -2 -1 -1 -1 -1 -1 -1 -1 -1 -1 -0 -0 -1 -1 -1 -1 -1 -1 -1 -1 -1 -1 -1
-3 -3 -3 -3 -4 -4 -4 -4 -4 -4 -4 -4 -3 -3 -3 -3 -2 -2 -2 -2 -2 -2 -2 -1 -1 -1 -1 -1 -1 -1 -1 -1 -1 -1 -1 -1 -1 -1 -1 -1 -1 -1 -1
-3 -4 -4 -4 -4 -4 -4 -4 -4 -4 -4 -4 -4 -4 -3 -3 -3 -3 -3 -3 -2 -2 -2 -2 -2 -1 -1 -1 -1 -1 -1 -1 -1 -1 -1 -1 -1 -1 -1 -1 -1 -1 -1
-4 -4 -5 -5 -5 -5 -5 -5 -5 -5 -4 -4 -4 -4 -4 -4 -3 -3 -3 -3 -3 -2 -2 -2 -2 -2 -1 -1 -1 -1 -1 -1 -1 -1 -1 -1 -1 -1 -1 -1 -1 -1 -1
-5 -5 -5 -5 -5 -5 -5 -5 -5 -5 -5 -4 -4 -4 -4 -4 -4 -3 -3 -3 -3 -3 -2 -2 -2 -2 -2 -2 -2 -1 -1 -1 -1 -1 -1 -1 -1 -1 -1 -1 -1 -1 -2
-5 -5 -5 -5 -5 -5 -5 -5 -5 -5 -5 -5 -5 -4 -4 -4 -4 -4 -4 -3 -3 -3 -3 -3 -2 -2 -2 -2 -2 -2 -1 -1 -1 -1 -1 -1 -1 -1 -1 -1 -2 -2 -2
Wind_Speed
4 4 4 3 3 3 3 3 3 3 4 4 4 4 4 5 5 5 5 5 6 6 5 6 7 6 6 5 5 5 5 4 6 4 3 2 4 4 4 6 8 8 9
4 3 3 3 2 2 3 3 2 3 3 3 3 3 4 4 5 5 5 5 5 6 6 6 7 6 7 6 5 6 5 5 5 6 3 2 4 5 5 6 5 6 7
3 2 2 2 2 2 2 2 2 2 3 3 3 3 4 4 4 4 4 4 5 5 5 6 6 6 7 5 5 5 5 5 4 5 4 3 3 3 3 3 4 3 5
3 2 2 2 2 2 1 1 1 1 2 2 2 3 3 3 3 3 4 4 4 4 4 5 5 6 6 5 4 5 4 4 4 4 4 3 3 2 3 3 3 3 3
2 2 2 2 2 1 1 1 1 1 1 1 1 2 2 2 3 3 3 4 3 4 4 5 6 6 6 5 5 5 5 4 4 4 4 3 3 3 4 3 4 2 2
2 2 2 2 2 1 1 1 1 1 1 1 2 2 2 3 3 4 4 3 3 4 4 4 4 4 5 6 7 7 8 7 7 6 5 5 5 4 3 3 3 2 2
3 2 2 2 2 2 1 1 1 1 1 1 2 2 2 2 3 4 4 3 3 3 3 3 4 3 3 3 4 6 7 10 10 7 7 7 6 5 5 4 4 4 3
3 3 3 2 2 2 2 1 1 1 1 2 1 1 1 2 4 4 4 3 2 3 3 4 4 3 3 3 3 3 4 5 7 6 6 6 5 5 6 5 4 2 1
4 4 3 2 2 3 2 2 2 2 2 2 2 1 1 2 3 4 4 2 2 3 4 3 3 3 4 3 3 2 3 2 3 4 5 5 5 6 5 4 4 3 1
5 4 3 3 2 3 3 3 2 2 2 2 2 2 2 2 4 5 4 1 2 3 3 3 4 4 4 4 3 3 3 3 2 2 2 2 2 3 5 5 6 5 2
4 4 4 3 3 3 3 2 2 2 2 2 2 3 2 3 4 5 5 2 2 3 3 3 3 4 5 5 4 4 5 3 2 2 2 2 1 1 2 2 3 4 4
4 5 5 3 3 3 3 3 3 2 2 3 3 3 2 3 4 4 5 5 5 3 4 3 3 5 4 4 3 3 4 2 2 2 2 2 2 2 2 2 2 2 2
4 4 5 4 3 3 3 3 3 2 2 2 2 3 3 3 3 5 5 5 6 4 3 4 4 4 3 2 2 4 3 2 2 2 3 2 2 3 2 2 3 4 4
4 4 4 4 4 3 3 3 2 2 2 2 3 3 3 3 3 2 2 2 4 3 2 2 2 2 1 0 2 2 2 2 2 2 2 2 3 3 3 2 2 3 3
3 4 4 3 4 3 3 3 3 3 3 4 3 3 3 4 5 6 5 3 2 3 3 1 0 1 1 1 1 1 1 1 1 2 2 2 3 3 3 3 2 3 2
3 4 3 3 3 3 3 4 5 6 8 8 7 6 5 6 8 8 7 7 7 4 2 1 1 2 2 2 2 1 1 2 2 2 3 2 3 3 3 3 3 3 4
3 3 3 3 3 3 4 4 5 6 8 8 8 8 8 7 7 7 6 6 5 3 1 1 2 2 2 2 2 2 2 2 2 2 3 3 2 3 4 4 3 4 4
3 4 4 3 3 3 4 4 4 4 5 5 6 7 7 6 6 5 5 3 2 2 0 1 2 2 2 2 2 2 2 2 2 2 3 2 3 3 3 4 4 4 4
3 3 3 3 3 3 3 4 4 4 4 5 5 5 6 5 5 4 3 1 1 1 1 1 1 2 2 2 2 2 2 3 3 2 2 3 3 3 3 3 4 5 5
3 6 5 4 3 3 3 4 4 4 4 4 4 4 4 3 2 2 2 2 1 2 1 1 1 2 2 2 2 2 2 3 3 3 3 2 3 3 4 4 4 5 4
2 4 6 5 3 3 3 4 4 4 4 4 4 5 6 3 2 2 2 2 2 2 2 1 1 1 1 2 2 2 3 3 3 3 3 3 3 3 3 3 3 4 5
2 2 3 3 3 3 4 3 3 4 4 5 5 5 6 3 2 2 2 2 2 1 1 2 2 2 2 2 2 3 3 3 3 3 3 3 3 3 4 4 4 4 5
2 3 3 3 4 5 5 4 4 4 4 4 5 4 3 3 3 2 2 2 1 1 1 1 1 1 1 1 2 2 3 3 3 4 3 3 3 3 4 4 5 6 6
3 3 3 4 4 4 4 4 4 4 4 4 4 4 3 3 3 3 2 1 1 1 1 0 1 1 2 1 1 1 2 3 4 4 4 4 4 3 4 5 5 6 6
3 3 4 4 4 4 4 4 4 5 5 5 5 5 4 3 3 2 2 1 1 1 1 0 0 1 2 2 2 2 4 5 5 4 4 4 4 4 5 5 5 6 6
3 4 4 4 4 4 4 4 5 5 5 5 5 4 4 3 3 2 2 1 1 1 1 1 0 1 1 2 2 4 5 5 6 5 5 5 5 5 5 5 7 7 7
Wind_Direction
284 280 283 283 278 258 246 240 228 220 211 209 209 213 219 221 220 220 224 223 225 228 227 228 233 234 236 233 220 218 222 219 238 254 248 219 203 203 198 194 197 201 206
286 290 291 293 286 269 254 247 231 227 218 213 205 218 228 229 223 218 225 234 236 234 231 230 235 237 241 234 215 214 218 219 223 240 249 228 219 203 201 198 195 199 201
302 306 311 315 311 293 277 254 228 225 226 225 219 227 233 232 229 220 222 236 242 242 238 234 238 240 242 230 214 215 218 223 221 223 239 230 231 201 195 198 187 187 197
328 323 321 313 314 298 304 307 263 217 218 226 231 234 231 234 238 237 235 237 243 247 249 245 241 243 232 222 217 216 215 214 209 212 224 216 219 201 173 191 201 196 200
350 333 324 334 340 340 358 352 1 7 288 234 235 248 243 243 242 245 244 248 244 252 259 259 257 248 234 225 223 216 210 211 207 213 219 211 209 189 202 204 207 197 204
11 345 337 353 354 2 17 13 359 335 308 272 244 247 251 262 269 276 273 266 250 248 256 267 267 262 247 235 231 228 219 214 211 213 220 213 220 209 204 198 190 181 226
8 353 353 1 356 349 345 12 336 299 302 289 267 249 247 246 269 281 286 283 259 254 257 267 274 264 258 240 238 237 232 227 223 217 213 215 213 209 194 200 203 198 223
4 359 358 0 358 353 3 342 308 308 305 300 296 276 272 263 275 286 300 304 293 287 274 262 259 256 245 235 235 238 240 235 225 219 214 214 207 196 195 197 190 164 102
359 352 345 343 346 348 347 341 325 320 313 306 293 282 277 267 276 287 297 302 300 300 288 277 262 255 253 237 221 230 240 240 209 190 187 190 192 189 175 153 152 152 188
348 346 348 351 352 346 339 336 333 326 310 308 305 288 264 251 272 288 299 289 295 297 293 283 272 262 267 239 218 209 216 225 199 183 174 162 172 169 166 174 176 176 173
349 356 354 354 346 336 334 333 331 328 327 317 307 298 288 273 282 286 290 283 266 279 281 280 267 264 264 253 236 217 208 205 201 178 175 173 155 163 160 156 170 179 181
359 357 349 343 334 332 333 327 326 325 320 310 300 301 303 295 284 282 285 285 285 272 269 268 262 265 270 260 237 189 173 177 181 176 174 184 182 180 160 144 131 123 144
357 351 345 344 340 333 326 321 320 318 305 301 298 294 298 303 294 286 288 290 295 286 268 269 284 289 298 279 177 165 164 169 166 178 189 197 185 165 144 118 93 94 78
341 335 339 342 340 339 335 327 318 309 300 294 294 297 301 301 300 300 292 299 310 311 302 295 293 306 311 185 160 154 163 175 171 174 174 166 147 142 142 136 127 121 96
329 326 328 330 326 327 326 320 311 301 290 291 284 280 287 293 296 302 298 295 293 280 293 284 206 176 155 162 154 147 148 156 156 155 146 153 151 143 142 140 134 130 120
320 319 316 314 315 313 310 315 315 305 308 301 293 286 286 285 295 304 309 309 310 306 311 181 200 198 195 191 186 178 175 179 169 157 148 148 158 154 144 133 134 136 132
304 303 305 303 303 307 311 308 310 318 317 311 303 301 296 293 295 300 310 315 308 311 315 189 196 198 196 189 184 182 187 181 161 155 153 150 146 151 148 145 143 138 132
301 296 299 298 297 295 295 296 297 302 314 316 312 307 303 301 304 302 308 321 317 320 267 204 196 189 180 179 182 178 174 166 159 153 152 150 152 153 153 156 156 150 144
304 300 298 296 297 296 296 299 302 301 302 308 317 318 312 310 310 303 311 319 260 258 250 223 206 188 182 185 187 186 181 171 162 155 155 158 159 155 156 158 155 146 140
304 301 306 306 304 306 307 305 304 307 307 308 307 309 317 324 322 314 314 310 285 265 248 233 220 194 185 182 182 183 166 158 155 159 164 163 160 158 156 153 154 154 151
304 308 308 310 309 308 307 307 308 307 305 303 301 302 301 299 287 287 287 285 276 262 246 234 225 192 179 177 184 177 166 165 165 166 167 162 160 156 151 149 151 150 142
301 302 307 304 305 308 306 304 305 304 304 306 308 308 306 312 305 301 297 291 287 277 253 231 227 212 195 191 188 181 171 170 170 167 163 159 156 151 144 145 146 143 140
301 301 303 305 305 302 306 306 304 302 302 303 307 305 304 306 302 299 299 297 300 298 290 221 207 196 167 165 176 184 179 180 176 171 163 159 155 154 151 149 148 147 146
299 298 297 298 301 301 301 301 300 299 300 301 304 301 293 291 294 297 298 295 291 296 311 248 183 175 170 164 155 158 160 161 156 157 161 162 160 156 150 148 150 150 147
298 296 294 292 293 294 295 296 296 298 298 298 299 299 295 290 291 294 293 293 298 298 310 313 154 152 160 164 161 153 153 151 153 149 149 151 150 148 146 145 144 141 138
289 288 287 287 287 287 288 291 294 295 294 293 294 292 290 288 289 291 290 281 288 295 306 355 78 132 148 142 145 151 148 144 142 141 135 138 143 144 144 142 138 135 134
Height
1404 1403 1401 1400 1399 1398 1398 1398 1399 1400 1401 1402 1404 1405 1406 1408 1409 1411 1413 1414 1416 1417 1418 1419 1420 1421 1422 1423 1423 1425 1426 1427 1426 1425 1427 1428 1429 1430 1431 1433 1435 1436 1437
1401 1400 1398 1397 1396 1395 1395 1395 1396 1396 1398 1398 1400 1401 1402 1403 1405 1407 1408 1409 1410 1411 1412 1413 1414 1415 1415 1416 1417 1418 1420 1421 1422 1421 1422 1423 1424 1425 1426 1427 1429 1430 1432
1399 1397 1395 1394 1394 1393 1392 1392 1393 1393 1394 1395 1396 1397 1398 1399 1401 1402 1403 1404 1405 1406 1407 1408 1408 1409 1409 1410 1411 1412 1414 1416 1417 1418 1417 1418 1419 1420 1421 1422 1423 1425 1427
1396 1395 1394 1393 1392 1391 1390 1390 1390 1390 1391 1391 1392 1394 1394 1395 1396 1397 1398 1399 1400 1401 1402 1403 1403 1403 1404 1405 1406 1407 1409 1411 1412 1413 1413 1413 1414 1415 1416 1417 1418 1419 1421
1394 1393 1392 1391 1390 1390 1389 1388 1388 1388 1388 1388 1389 1390 1391 1391 1392 1393 1394 1395 1395 1396 1397 1397 1398 1398 1399 1400 1401 1402 1404 1406 1407 1408 1408 1408 1409 1410 1411 1412 1413 1414 1416
1392 1391 1390 1389 1389 1388 1387 1386 1386 1386 1385 1386 1386 1387 1387 1388 1389 1390 1390 1391 1391 1391 1392 1392 1392 1393 1393 1395 1396 1397 1400 1401 1402 1403 1403 1404 1404 1405 1407 1408 1408 1410 1411
1391 1390 1389 1388 1387 1386 1385 1385 1384 1384 1384 1383 1384 1384 1384 1385 1386 1386 1387 1387 1387 1387 1387 1387 1387 1388 1389 1390 1391 1392 1394 1395 1397 1398 1398 1399 1400 1401 1402 1403 1404 1405 1406
1391 1389 1388 1387 1386 1385 1384 1383 1383 1382 1382 1381 1381 1381 1381 1382 1382 1383 1383 1383 1383 1383 1383 1383 1383 1383 1384 1385 1386 1387 1388 1389 1391 1393 1394 1395 1396 1397 1398 1400 1401 1402 1403
1390 1389 1387 1386 1385 1384 1383 1381 1381 1380 1380 1380 1379 1379 1378 1378 1379 1379 1380 1379 1379 1379 1379 1379 1379 1379 1380 1381 1382 1382 1383 1384 1386 1388 1390 1391 1392 1394 1394 1396 1396 1397 1398
1389 1388 1386 1385 1384 1382 1381 1380 1379 1378 1378 1377 1376 1376 1376 1375 1376 1376 1376 1376 1375 1375 1374 1375 1375 1376 1376 1377 1378 1378 1379 1380 1382 1383 1385 1387 1388 1389 1390 1392 1393 1393 1394
1389 1387 1385 1384 1382 1381 1379 1378 1377 1376 1375 1374 1373 1373 1372 1372 1372 1372 1372 1372 1371 1370 1370 1370 1371 1371 1372 1373 1374 1374 1375 1377 1378 1380 1381 1382 1383 1385 1386 1388 1389 1390 1391
1388 1386 1384 1382 1381 1379 1377 1376 1375 1374 1372 1371 1370 1369 1369 1368 1368 1368 1368 1368 1368 1367 1366 1366 1366 1367 1368 1369 1369 1370 1372 1374 1375 1376 1377 1378 1379 1381 1382 1384 1385 1387 1388
1387 1385 1383 1381 1379 1377 1375 1374 1372 1371 1370 1369 1367 1366 1365 1365 1365 1365 1364 1364 1363 1363 1362 1362 1362 1363 1364 1364 1365 1367 1369 1370 1371 1372 1373 1374 1376 1377 1379 1380 1381 1383 1385
1385 1383 1381 1379 1377 1375 1374 1372 1371 1369 1368 1366 1365 1363 1362 1361 1361 1361 1360 1359 1359 1358 1357 1357 1358 1359 1360 1361 1362 1364 1366 1367 1368 1369 1370 1372 1373 1374 1375 1377 1378 1380 1382
1383 1382 1379 1377 1375 1373 1372 1370 1369 1367 1367 1365 1363 1362 1360 1358 1358 1358 1357 1355 1355 1354 1353 1353 1354 1355 1356 1358 1359 1361 1363 1364 1366 1367 1368 1369 1370 1371 1372 1374 1376 1378 1379
1381 1379 1377 1376 1374 1372 1369 1367 1366 1365 1364 1362 1361 1360 1358 1357 1356 1355 1354 1353 1351 1351 1350 1350 1350 1352 1353 1355 1357 1358 1360 1362 1363 1364 1365 1366 1367 1368 1370 1372 1374 1375 1377
1379 1377 1375 1373 1372 1369 1367 1364 1362 1360 1359 1358 1357 1356 1355 1354 1353 1352 1350 1349 1348 1348 1347 1347 1348 1350 1351 1353 1355 1356 1358 1360 1361 1362 1363 1364 1365 1366 1368 1369 1371 1373 1375
1376 1374 1372 1371 1369 1367 1364 1362 1360 1358 1355 1353 1353 1352 1351 1350 1349 1349 1348 1347 1345 1346 1345 1346 1347 1348 1349 1351 1353 1354 1356 1357 1359 1360 1361 1362 1363 1365 1366 1368 1370 1371 1373
1373 1371 1369 1367 1366 1364 1362 1360 1358 1355 1353 1351 1349 1349 1348 1347 1346 1346 1345 1344 1343 1343 1344 1344 1345 1347 1348 1349 1351 1352 1353 1355 1356 1358 1359 1360 1362 1363 1365 1366 1368 1370 1371
1369 1367 1366 1364 1362 1360 1359 1357 1355 1353 1351 1349 1347 1347 1346 1345 1343 1343 1343 1342 1341 1341 1342 1342 1343 1345 1346 1347 1348 1349 1350 1352 1354 1355 1357 1358 1360 1362 1363 1365 1367 1368 1370
1365 1363 1362 1361 1359 1357 1356 1354 1352 1350 1348 1347 1345 1345 1344 1343 1341 1340 1340 1340 1339 1339 1340 1340 1341 1342 1343 1344 1346 1347 1348 1350 1352 1353 1355 1357 1359 1360 1362 1364 1366 1367 1369
1362 1360 1359 1357 1356 1354 1353 1351 1350 1348 1346 1345 1343 1342 1342 1341 1339 1338 1338 1337 1337 1337 1338 1338 1339 1340 1341 1342 1343 1345 1346 1348 1350 1352 1353 1355 1357 1359 1361 1362 1364 1366 1368
1358 1357 1355 1354 1352 1351 1350 1348 1347 1345 1344 1342 1341 1340 1339 1338 1337 1336 1335 1335 1335 1335 1336 1336 1337 1338 1339 1340 1342 1343 1344 1346 1348 1350 1351 1353 1355 1357 1359 1361 1363 1365 1367
1355 1353 1352 1351 1349 1348 1346 1345 1344 1343 1341 1340 1339 1338 1337 1335 1334 1334 1333 1333 1333 1333 1333 1334 1335 1336 1337 1338 1339 1341 1343 1345 1347 1349 1350 1352 1354 1356 1358 1360 1362 1364 1366
1352 1350 1349 1347 1346 1345 1343 1342 1341 1340 1339 1338 1336 1335 1334 1333 1332 1332 1331 1331 1331 1331 1331 1332 1333 1334 1335 1336 1338 1339 1341 1343 1345 1347 1349 1351 1353 1355 1357 1359 1361 1363 1366
1348 1347 1345 1344 1343 1342 1340 1339 1338 1337 1336 1335 1334 1333 1332 1331 1330 1330 1329 1329 1329 1329 1330 1331 1332 1333 1334 1335 1337 1338 1340 1342 1344 1346 1348 1350 1352 1354 1356 1358 1361 1363 1365